Flag for Germany Weather past 2 weeks in Remscheid, North Rhine-Westphalia, Germany

Now
64 °F

Fog.


Feels Like: 64 °F
Forecast: 54 / 67 °F
Wind: 5 mph from Northwest

Location: Duesseldorf

Current Time: Jul 12, 2014 at 8:57:22 AM

Latest Report: Jul 12, 2014 at 8:20 AM


Visibility: 2 mi

Pressure: 29.92 "Hg

Humidity: 88%

Dew point: 61 °F

Location of RemscheidLocation

Historic Weather in Remscheid — Graph

°F

Remscheid temperature yesterday

Maximum temperature yesterday: 72 °F (at 2:20 PM)
Minimum temperature yesterday: 63 °F (at 3:50 AM)
Average temperature yesterday: 67 °F

Past Weeks' High & Low Weather Summary

 TemperatureHumidityPressure
High84 °F (Jul 4, 1:20 PM)100% (Jun 29, 4:50 AM)30.21 "Hg (Jun 29, 4:50 AM)
Low45 °F (Jul 1, 4:50 AM)27% (Jul 4, 2:20 PM)29.65 "Hg (Jul 6, 7:20 PM)
Average64 °F72%29.93 "Hg
* Reported Jun 27 7:20 AM — Jul 12 7:50 AM, Remscheid, Weather by CustomWeather, © 2014

Note: Actual official high and low records may vary slightly from our data, if they occured in-between our weather recording intervals... More about our weather records

Advertising

Remscheid weather history for previous 24 hours

 ConditionsComfort  
Time TempWeatherWind HumidityBarometerVisibility
7:50 AM
Jul 12
64 °FFog.5 mph88%29.92 "Hg2 mi
7:20 AM64 °FFog.5 mph88%29.92 "Hg2 mi
6:50 AM64 °FFog.6 mph88%29.92 "Hg3 mi
6:20 AM64 °FDrizzle. Fog.6 mph88%29.92 "Hg3 mi
5:50 AM64 °FFog.6 mph88%29.92 "Hg3 mi
5:20 AM64 °FFog.7 mph88%29.92 "Hg3 mi
4:50 AM64 °FFog.7 mph88%29.92 "Hg3 mi
4:20 AM64 °FFog.7 mph83%29.92 "Hg3 mi
3:50 AM64 °FFog.8 mph83%29.95 "Hg3 mi
3:20 AM64 °FFog.8 mph88%29.95 "Hg3 mi
2:50 AM66 °FFog.5 mph83%29.95 "Hg3 mi
2:20 AM66 °FFog.7 mph83%29.95 "Hg3 mi
1:50 AM66 °FPassing clouds.8 mph83%29.95 "Hg4 mi
1:20 AM66 °FPassing clouds.9 mph83%29.95 "Hg4 mi
12:50 AM68 °FPassing clouds.9 mph78%29.95 "Hg4 mi
12:20 AM68 °FPassing clouds.5 mph83%29.95 "Hg5 mi
11:50 PM
Jul 11
68 °FPassing clouds.6 mph83%29.95 "Hg5 mi
11:20 PM68 °FPassing clouds.5 mph83%29.95 "Hg5 mi
10:20 PM68 °FBroken clouds.5 mph83%29.95 "Hg5 mi
9:50 PM70 °FPartly sunny.5 mph78%29.95 "Hg5 mi
9:20 PM70 °FBroken clouds.3 mph78%29.95 "Hg5 mi
8:50 PM70 °FBroken clouds.6 mph78%29.92 "Hg5 mi
8:20 PM70 °FBroken clouds.7 mph78%29.92 "Hg5 mi
7:50 PM70 °FBroken clouds.8 mph78%29.92 "Hg6 mi
7:20 PM72 °FPartly sunny.7 mph73%29.95 "Hg6 mi
6:50 PM72 °FPartly sunny.7 mph73%29.95 "HgN/A
6:20 PM72 °FPartly sunny.8 mph73%29.92 "HgN/A
5:50 PM72 °FPartly sunny.7 mph73%29.95 "HgN/A
5:20 PM72 °FPartly sunny.8 mph73%29.92 "HgN/A
4:50 PM72 °FPartly sunny.7 mph73%29.95 "HgN/A
4:20 PM72 °FPartly sunny.9 mph73%29.92 "Hg6 mi
3:50 PM72 °FPartly sunny.5 mph73%29.95 "Hg6 mi
3:20 PM72 °FBroken clouds.6 mph73%29.95 "HgN/A
2:50 PM72 °FPartly sunny.6 mph73%29.95 "HgN/A
2:20 PM72 °FPartly sunny.3 mph73%29.95 "HgN/A
1:50 PM70 °FPartly sunny.3 mph73%29.95 "HgN/A
1:20 PM70 °FPartly sunny.5 mph73%29.95 "HgN/A
12:50 PM70 °FPartly sunny.2 mph73%29.95 "HgN/A
12:20 PM70 °FPartly sunny.3 mph73%29.95 "HgN/A
11:50 AM68 °FPartly sunny.6 mph78%29.95 "HgN/A
11:20 AM68 °FBroken clouds.5 mph78%29.95 "HgN/A
10:50 AM66 °FPartly sunny.6 mph83%29.95 "HgN/A
10:20 AM66 °FPartly sunny.5 mph83%29.95 "HgN/A
9:50 AM66 °FPartly sunny.7 mph83%29.95 "Hg6 mi
9:20 AM66 °FPartly sunny.8 mph83%29.95 "Hg5 mi
8:50 AM66 °FPartly sunny.6 mph83%29.95 "Hg4 mi
8:20 AM64 °FPartly sunny.6 mph88%29.95 "Hg4 mi
Weather by CustomWeather, © 2014

See weather overviewHow to use our weather pages